Vorticity
17 11 27 35 18 19 12 12 12 7 9 10 14 12 8 8 9 7 9 7 5 6 10 6 1 11 7 5 7 5 4 6 3 3 4 -0 -2 -1 4 5 8 6 3 0
17 22 33 11 43 17 15 13 11 -1 26 10 10 14 11 9 6 6 8 5 10 11 8 7 15 5 2 4 7 3 3 3 4 7 12 2 2 3 6 6 6 5 6 5
19 -3 1 6 24 27 13 13 10 8 12 32 14 10 13 13 11 6 7 6 9 4 7 7 13 -8 9 3 5 8 13 7 7 9 12 21 8 6 5 7 1 5 5 5
18 13 -17 -25 6 25 17 12 13 9 -4 5 19 14 11 11 10 10 9 7 8 10 10 6 10 -1 5 2 2 3 3 6 7 6 7 6 4 4 3 1 14 7 6 2
18 12 40 16 10 18 18 10 8 13 10 -3 4 20 11 8 17 7 9 11 11 9 12 7 7 8 3 3 5 4 4 5 6 4 6 7 8 11 8 5 4 -1 -3 4
21 15 10 -7 -3 39 9 15 10 15 11 11 5 3 18 13 12 14 12 12 11 11 7 8 8 8 6 2 4 5 5 5 7 6 8 7 1 8 11 10 11 -7 7 1
23 17 -8 24 12 7 28 15 12 12 15 14 13 13 1 20 11 15 13 12 8 5 8 11 10 11 8 7 4 5 6 8 12 13 14 2 6 8 11 14 17 9 4 3
23 -14 -20 -17 -6 -6 18 9 7 8 11 13 15 9 14 10 10 10 11 10 11 10 13 9 8 7 9 7 8 8 10 9 7 6 7 9 7 9 14 10 3 6 10 12
20 17 17 -5 30 16 7 24 -8 16 10 8 8 16 5 11 9 10 12 15 13 8 7 6 12 10 12 9 9 8 9 9 7 10 9 6 6 9 13 9 7 6 7 6
26 22 21 1 16 -3 31 10 3 10 18 12 7 8 5 9 10 11 13 8 10 14 14 13 11 10 10 9 8 8 9 8 6 10 10 10 9 12 14 10 9 13 11 7
12 0 23 -7 3 -2 18 18 -0 19 14 11 12 8 5 8 26 -1 14 9 8 9 11 12 9 12 10 9 8 9 10 8 9 13 8 9 10 12 11 6 8 10 11 13
21 -7 -0 -2 0 4 23 28 19 -26 21 26 -1 13 14 12 16 8 2 4 7 9 13 9 9 10 9 11 8 12 12 11 11 8 16 18 20 25 19 17 15 16 14 5
31 50 13 13 -0 9 -6 14 15 4 -16 21 11 20 25 11 3 5 6 7 6 12 11 11 10 9 14 10 13 11 14 16 12 9 5 7 5 -2 2 8 2 11 10 19
12 3 1 -3 0 2 13 21 18 22 13 1 31 9 3 5 6 10 11 13 14 7 5 3 4 12 12 12 9 11 10 13 4 8 7 10 2 8 9 12 10 9 11 8
37 -16 -12 10 -1 11 1 -1 17 13 19 23 -13 22 8 7 10 11 10 7 4 8 12 11 15 17 12 8 6 4 7 6 7 7 15 15 11 10 10 10 8 8 10 10
35 17 27 20 -3 2 -0 -2 4 8 7 13 22 15 10 17 14 14 14 10 11 14 11 8 15 11 11 10 10 8 5 4 6 8 9 8 9 8 7 4 3 4 6 8
13 -9 17 25 15 -3 3 10 6 13 13 13 19 14 14 14 17 14 13 17 18 12 13 18 20 11 5 5 6 10 15 15 10 10 8 6 3 -1 1 6 8 9 9 10
8 5 6 7 1 -1 6 14 20 20 24 7 18 24 25 19 15 14 18 17 16 16 17 16 13 10 17 16 19 17 13 13 11 8 7 8 10 12 11 11 11 10 11 11
5 -15 19 30 17 13 18 16 9 16 20 14 16 17 21 18 20 16 17 18 19 19 19 18 17 15 18 15 13 12 12 11 11 10 9 9 12 10 8 7 6 8 10 12
22 1 -5 -4 13 8 5 15 18 18 15 16 15 16 18 18 14 13 15 14 13 12 13 13 13 13 17 15 13 13 10 12 10 13 15 9 9 11 12 14 17 17 17 17
13 -5 -1 8 1 -0 7 10 12 12 15 13 12 7 12 10 9 8 8 10 12 9 13 14 15 11 10 10 11 13 11 13 13 10 11 14 14 17 18 18 18 16 15 15
6 -1 5 -1 4 1 3 10 11 15 14 11 12 7 6 5 3 1 4 3 6 8 13 17 15 15 16 14 16 15 12 10 16 15 15 15 15 15 16 16 16 17 17 18
10 -3 1 1 1 2 1 8 13 23 9 6 5 0 2 3 1 2 2 -0 5 13 13 15 15 13 14 14 13 6 24 17 12 12 15 15 14 13 17 15 14 22 31 26
17 11 11 1 -2 8 -6 12 19 9 5 2 1 1 2 3 2 1 -1 0 6 14 16 15 11 9 14 18 21 48 -19 12 20 7 9 9 7 6 13 19 12 17 8 10
12 6 8 -1 7 1 9 6 5 3 2 4 7 7 6 5 3 2 0 3 9 11 15 14 10 9 14 31 28 63 21 16 17 13 10 14 15 7 24 9 3 13 35 18
17 7 1 5 1 3 7 11 5 7 5 5 7 8 6 2 1 2 5 9 11 13 13 14 16 10 10 14 21 39 1 -17 -4 34 31 15 24 12 19 -2 -5 -8 -12 36
7 13 12 8 6 13 9 6 4 1 7 7 7 7 3 1 -0 4 9 13 14 15 9 6 11 11 13 15 13 14 22 30 1 20 15 16 11 14 16 1 17 10 6 -3
Height
5531 5543 5556 5566 5575 5586 5598 5608 5625 5632 5639 5647 5659 5675 5687 5696 5703 5711 5717 5724 5731 5736 5744 5748 5751 5756 5761 5765 5769 5773 5777 5781 5784 5790 5791 5792 5793 5795 5800 5800 5803 5800 5800 5802
5520 5534 5545 5556 5562 5572 5583 5598 5610 5619 5624 5635 5649 5660 5672 5681 5689 5698 5706 5710 5721 5727 5735 5740 5743 5744 5748 5754 5759 5765 5768 5770 5774 5781 5786 5783 5785 5788 5792 5793 5793 5793 5794 5795
5508 5523 5532 5543 5550 5559 5573 5584 5594 5604 5614 5626 5636 5646 5658 5667 5677 5684 5691 5698 5708 5716 5723 5729 5735 5735 5739 5744 5750 5755 5760 5763 5766 5772 5779 5782 5778 5779 5781 5785 5783 5784 5785 5786
5498 5510 5521 5531 5542 5549 5559 5569 5582 5593 5605 5613 5623 5631 5643 5652 5663 5671 5679 5684 5697 5705 5711 5716 5724 5726 5727 5733 5739 5743 5749 5754 5757 5761 5764 5768 5771 5772 5772 5773 5777 5776 5778 5777
5487 5500 5511 5523 5532 5538 5549 5560 5571 5581 5597 5605 5612 5619 5632 5642 5653 5659 5667 5675 5685 5692 5698 5704 5711 5718 5718 5722 5727 5733 5738 5745 5749 5750 5753 5756 5759 5763 5764 5764 5764 5766 5767 5769
5479 5492 5504 5514 5522 5531 5543 5552 5564 5574 5586 5595 5603 5614 5623 5631 5639 5647 5655 5664 5672 5679 5685 5692 5700 5705 5709 5712 5717 5723 5728 5732 5737 5741 5745 5746 5747 5752 5755 5756 5757 5757 5756 5754
5472 5482 5495 5505 5516 5528 5534 5545 5557 5567 5577 5585 5596 5606 5614 5621 5629 5636 5641 5650 5657 5665 5674 5682 5688 5694 5698 5704 5707 5713 5717 5722 5728 5730 5733 5732 5739 5742 5744 5745 5747 5747 5745 5746
5465 5477 5487 5497 5508 5518 5528 5539 5551 5558 5568 5577 5586 5594 5602 5610 5616 5623 5628 5640 5648 5657 5664 5669 5674 5681 5689 5694 5698 5702 5706 5708 5713 5717 5720 5724 5727 5729 5733 5730 5731 5732 5734 5736
5459 5471 5483 5494 5503 5514 5522 5532 5542 5551 5560 5568 5577 5586 5595 5600 5609 5613 5622 5630 5637 5645 5651 5658 5665 5672 5680 5684 5687 5691 5696 5699 5701 5703 5705 5710 5714 5720 5721 5719 5715 5718 5722 5724
5453 5465 5477 5489 5498 5506 5516 5526 5536 5544 5553 5562 5571 5579 5587 5594 5600 5606 5615 5621 5628 5635 5642 5647 5653 5660 5665 5671 5676 5681 5684 5686 5688 5692 5692 5698 5699 5704 5703 5705 5708 5708 5712 5715
5449 5462 5474 5484 5495 5504 5511 5521 5529 5538 5546 5554 5563 5572 5580 5587 5592 5597 5607 5612 5618 5625 5631 5636 5642 5649 5655 5660 5667 5670 5671 5675 5678 5680 5681 5683 5685 5691 5692 5689 5691 5699 5702 5703
5445 5459 5471 5482 5491 5499 5507 5516 5524 5532 5540 5546 5554 5562 5571 5578 5586 5591 5598 5604 5611 5616 5622 5628 5632 5639 5644 5650 5655 5659 5661 5661 5664 5667 5670 5671 5674 5675 5677 5677 5680 5683 5685 5687
5441 5454 5468 5479 5487 5495 5505 5512 5519 5526 5534 5540 5550 5557 5564 5570 5576 5585 5591 5597 5604 5609 5613 5618 5623 5629 5633 5638 5643 5647 5651 5649 5650 5655 5658 5658 5662 5664 5664 5665 5664 5669 5672 5674
5439 5451 5464 5475 5485 5494 5502 5508 5514 5520 5530 5536 5543 5548 5556 5562 5569 5576 5583 5588 5595 5598 5601 5608 5612 5617 5622 5627 5633 5638 5640 5642 5642 5644 5644 5647 5648 5647 5652 5654 5657 5659 5661 5664
5436 5450 5463 5473 5483 5492 5499 5504 5510 5517 5525 5532 5537 5544 5548 5554 5561 5568 5574 5579 5583 5587 5593 5600 5603 5607 5612 5616 5621 5628 5628 5629 5632 5635 5635 5633 5636 5639 5642 5643 5643 5646 5648 5651
5438 5451 5462 5473 5481 5488 5495 5501 5507 5512 5518 5525 5531 5537 5541 5548 5554 5559 5566 5570 5574 5580 5585 5590 5594 5596 5601 5604 5610 5615 5613 5613 5616 5620 5623 5625 5627 5627 5628 5629 5630 5631 5633 5635
5441 5450 5460 5470 5479 5486 5492 5499 5504 5507 5512 5519 5524 5530 5535 5541 5547 5552 5558 5561 5566 5571 5575 5579 5582 5585 5588 5594 5599 5600 5599 5602 5605 5607 5609 5611 5612 5613 5612 5613 5613 5615 5616 5617
5437 5448 5458 5468 5477 5484 5490 5494 5498 5502 5507 5512 5521 5525 5531 5536 5541 5546 5550 5555 5558 5562 5566 5569 5571 5574 5577 5583 5585 5583 5584 5586 5590 5593 5594 5595 5597 5596 5599 5600 5598 5599 5600 5600
5437 5449 5459 5468 5475 5482 5487 5491 5495 5499 5506 5510 5516 5521 5527 5533 5537 5541 5546 5549 5552 5557 5558 5560 5564 5565 5568 5568 5569 5570 5572 5574 5575 5576 5579 5579 5579 5579 5580 5580 5579 5578 5579 5578
5437 5450 5460 5467 5473 5480 5485 5490 5495 5499 5504 5509 5514 5519 5525 5530 5534 5538 5544 5546 5549 5551 5553 5554 5556 5557 5555 5555 5556 5557 5558 5559 5562 5563 5563 5561 5561 5562 5561 5561 5560 5559 5559 5559
5438 5449 5459 5467 5473 5479 5484 5489 5494 5499 5503 5508 5514 5519 5526 5531 5534 5537 5540 5542 5545 5546 5547 5548 5548 5546 5545 5546 5545 5544 5544 5545 5546 5545 5545 5546 5545 5545 5544 5543 5542 5540 5539 5539
5442 5452 5461 5467 5473 5479 5484 5489 5495 5500 5504 5509 5515 5520 5524 5528 5532 5536 5538 5539 5539 5538 5538 5536 5536 5534 5534 5535 5533 5532 5532 5531 5529 5529 5530 5529 5529 5529 5528 5527 5526 5524 5522 5520
5440 5450 5458 5465 5472 5477 5483 5489 5494 5500 5505 5510 5516 5520 5523 5526 5529 5531 5532 5533 5533 5532 5530 5528 5527 5525 5525 5523 5521 5519 5516 5517 5516 5515 5516 5515 5514 5514 5513 5513 5511 5509 5507 5503
5441 5450 5458 5465 5472 5479 5486 5491 5497 5503 5506 5510 5515 5518 5521 5523 5525 5526 5527 5527 5525 5523 5521 5519 5518 5515 5512 5509 5506 5505 5503 5503 5502 5501 5502 5502 5502 5503 5502 5500 5499 5498 5495 5491
5441 5450 5458 5466 5473 5480 5486 5490 5495 5500 5504 5509 5513 5516 5519 5520 5521 5522 5521 5520 5517 5515 5513 5511 5509 5507 5503 5498 5495 5493 5494 5492 5491 5491 5491 5491 5491 5492 5492 5491 5490 5487 5483 5480
5443 5451 5460 5466 5473 5479 5485 5490 5494 5499 5504 5507 5511 5513 5515 5517 5517 5517 5516 5514 5512 5510 5507 5505 5502 5500 5497 5493 5490 5488 5486 5485 5484 5483 5481 5481 5481 5481 5482 5482 5480 5479 5476 5472
5444 5452 5460 5466 5472 5479 5484 5488 5493 5498 5501 5505 5507 5510 5512 5513 5513 5513 5511 5510 5507 5504 5501 5499 5495 5492 5489 5487 5484 5481 5479 5478 5477 5474 5472 5471 5471 5471 5471 5472 5472 5471 5468 5465